Orbital Elements at Epoch 2459200.5 (2020-Dec-17.0) TDB
Reference: JPL 20 (heliocentric ecliptic J2000)
Element | Value | Uncertainty (1-sigma) | Units |
e | .06664311705250468 | 4.8835e-08 | |
a | 2.436232888739204 | 1.2006e-08 | au |
q | 2.273874735167796 | 1.2044e-07 | au |
i | 6.779120107517554 | 5.049e-06 | deg |
node | 154.9472297768567 | 3.2065e-05 | deg |
peri | 10.49625024937561 | 4.2978e-05 | deg |
M | 163.120128649074 | 2.9717e-05 | deg |
tp | 2458571.165291691682 (2019-Mar-28.66529169) | 0.00011342 | TDB |
period | 1388.918074472598 3.80 | 1.0267e-05 2.811e-08 | d yr |
n | .2591945533840789 | 1.9161e-09 | deg/d |
Q | 2.598591042310612 | 1.2806e-08 | au |
|
| | Orbit Determination Parameters
Additional Information
|